Regional Weather Roundup
Issued by NWS

Home | Current Version | Previous Version | Graphics & Text | Print | Product List | Glossary Off
Versions: 1 2 3 4 5 6 7 8 9 10 11 12 13 14 15 16 17 18 19 20 21 22 23 24 25 26 27 28 29 30 31 32 33 34 35 36 37 38 39 40 41 42 43 44 45 46 47 48 49 50

000
ASUS43 KDMX 201801
RWRIA

WEATHER ROUNDUP FOR IOWA
NATIONAL WEATHER SERVICE DES MOINES IA
100 PM CDT WED SEP 20 2017

NOTE: "FAIR" INDICATES FEW OR NO CLOUDS BELOW 12,000 FEET WITH NO
SIGNIFICANT WEATHER AND/OR OBSTRUCTIONS TO VISIBILITY.

* - THESE STATIONS ARE NOT NWS STATIONS...THUS NOT UNDER NWS
QUALITY CONTROL.  THEY ALSO DO NOT REPORT WEATHER SUCH
AS PRECIPITATION OR FOG.

IAZ001>003-012>014-020>022-031>034-043>046-201900-
   NORTHWEST IOWA

CITY           SKY/WX    TMP DP  RH WIND       PRES   REMARKS
CARROLL *      SUNNY     77  55  47 N12       29.82R
CHEROKEE *     SUNNY     71  53  52 N12       29.85R
DENISON *      SUNNY     73  57  56 N12       29.85S
LE MARS *      SUNNY     70  50  49 NW10G18   29.87R
ORANGE CITY *  SUNNY     70  54  56 NW10G16   29.87S
SHELDON *      SUNNY     68  52  56 NW9       29.85F
SIOUX CITY     SUNNY     70  54  56 NW10      29.86S
6HR MIN TEMP:  57; 6HR MAX TEMP:  70;

SPENCER        SUNNY     72  52  49 W13       29.85R
6HR MIN TEMP:  58; 6HR MAX TEMP:  72;

STORM LAKE *   SUNNY     72  52  49 N12G18    29.84S
$$

IAZ055>058-069>071-079>083-090>094-201900-
   SOUTHWEST IOWA

CITY           SKY/WX    TMP DP  RH WIND       PRES   REMARKS
ATLANTIC *     PTSUNNY   79  63  57 N13       29.81R HX  80
AUDUBON *      MOSUNNY   77  61  57 N10       29.83R
CLARINDA *     PTSUNNY   84  70  61 W6G14     29.80R HX  88
COUNCIL BLFS * SUNNY     75  57  53 NW12      29.83R
CRESTON *      PTSUNNY   82 -29   1 W7G14     29.81R
HARLAN  *      SUNNY     75  55  50 N9G18     29.86R
LAMONI         PTSUNNY   84  71  65 S14       29.80R HX  89
6HR MIN TEMP:  70; 6HR MAX TEMP:  84;

RED OAK *      MOSUNNY   81  63  54 NW9G16    29.81R HX  82
SHENANDOAH *   MOSUNNY   81  63  54 N10       29.81R HX  82
$$

IAZ047>049-059>061-072>074-084-201900-
   CENTRAL IOWA

CITY           SKY/WX    TMP DP  RH WIND       PRES   REMARKS
AMES           MOSUNNY   84  71  65 SW6       29.77R HX  89
6HR MIN TEMP:  73; 6HR MAX TEMP:  85;

ANKENY *       MOSUNNY   84  72  65 SW7       29.78R HX  89
BOONE *        PTSUNNY   81  68  65 W9        29.78R HX  83
CHARITON *     PTSUNNY   82  70  65 SW9G17    29.80R HX  86
DES MOINES     PTSUNNY   84  70  62 SW8       29.77R HX  88
6HR MIN TEMP:  73; 6HR MAX TEMP:  85;

GRINNELL*      CLOUDY    82  70  66 S8        29.80S HX  86
KNOXVILLE *    PTSUNNY   84  70  61 S13       29.77S HX  88
MARSHALLTOWN   CLOUDY    83  72  69 S10       29.77R HX  88
6HR MIN TEMP:  70; 6HR MAX TEMP:  83;

NEWTON *       CLOUDY    84  70  61 SW12G17   29.78S HX  88
PELLA *        PTSUNNY   85  69  57 SW9       29.79S HX  89
PERRY *          N/A     83  66  56 W9        29.79R HX  86
$$

IAZ004>006-015-016-023>025-035-036-201900-
   NORTH CENTRAL IOWA

CITY           SKY/WX    TMP DP  RH WIND       PRES   REMARKS
ALGONA *       SUNNY     73  55  53 N9        29.83R
CLARION *      SUNNY     77  59  53 N9G16     29.81R
ESTHERVILLE    SUNNY     70  52  52 NW12      29.84R
6HR MIN TEMP:  57; 6HR MAX TEMP:  70;

FORT DODGE *   SUNNY     76  57  51 NW8       29.82R
MASON CITY     SUNNY     77  58  51 NW13      29.81R
6HR MIN TEMP:  68; 6HR MAX TEMP:  80;

FOREST CITY *    N/A     73  57  56 N12       29.81R
IOWA FALLS *   PTSUNNY   83  69  61 SW7       29.79R HX  87
$$

IAZ007>011-017>019-026>030-037>042-050>054-066-201900-
   NORTHEAST IOWA

CITY           SKY/WX    TMP DP  RH WIND       PRES   REMARKS
CEDAR RAPIDS   MOSUNNY   86  70  58 S14       29.78S HX  90
6HR MIN TEMP:  69; 6HR MAX TEMP:  87;

CHARLES CITY * PTSUNNY   81  70  69 SW7       29.78R HX  84
CLINTON *      SUNNY     88  72  58 S13       29.83F HX  94
DECORAH *      CLOUDY    81  70  69 VRB6      29.78R HX  84
DUBUQUE        SUNNY     84  70  62 SW16G22   29.81S HX  88
6HR MIN TEMP:  65; 6HR MAX TEMP:  84;

MONTICELLO *   SUNNY     88  70  55 SW13      29.79S HX  92
OELWEIN *      CLOUDY    82  72  69 SW12G20   29.79S HX  87
WATERLOO       CLOUDY    81  69  67 S14       29.77R HX  84
6HR MIN TEMP:  70; 6HR MAX TEMP:  83;

$$

IAZ064-065-067-068-078-201900-
   EAST CENTRAL IOWA

CITY           SKY/WX    TMP DP  RH WIND       PRES   REMARKS
DAVENPORT      SUNNY     88  70  55 S14       29.84F HX  93
6HR MIN TEMP:  68; 6HR MAX TEMP:  88;

IOWA CITY      SUNNY     90  71  53 S16       29.80F HX  96
6HR MIN TEMP:  70; 6HR MAX TEMP:  90;

MUSCATINE *    SUNNY     91  68  46 S14       29.80F HX  95
QUAD CITIES    SUNNY     91  70  49 S9        29.81F HX  96
6HR MIN TEMP:  69; 6HR MAX TEMP:  91;

$$

IAZ062-063-075>077-085>089-095>099-201900-
   SOUTHEAST IOWA

CITY           SKY/WX    TMP DP  RH WIND       PRES   REMARKS
BURLINGTON     SUNNY     89  72  56 S13       29.83S HX  96
6HR MIN TEMP:  71; 6HR MAX TEMP:  89;

FAIRFIELD *    SUNNY     90  68  48 S14       29.79F HX  93
FORT MADISON * SUNNY     90  72  55 S12G17    29.84S HX  96
KEOKUK *       SUNNY     88  70  55 S10G17    29.83S HX  92
OSKALOOSA *      N/A     87  69  55 S10G17    29.80S HX  92
OTTUMWA        MOSUNNY   86  70  58 SW13G20   29.79S HX  90
6HR MIN TEMP:  71; 6HR MAX TEMP:  87;

WASHINGTON *   SUNNY     90  72  55 S12G20    29.80F HX  96
$$

ABBREVIATIONS USED IN REMARKS
   TC - TEMPERATURES IN CELSIUS
  WCI - WIND CHILL INDEX
   HX - HEAT INDEX
  VSB - VISIBILITY
$$





USA.gov is the U.S. government's official web portal to all federal, state and local government web resources and services.